Weather History for Monett, MO

Change the Weather History Date:

Friday, September 13, 2013

  Actual Average (KJLN) Record (KJLN)
Temperature  
Mean Temperature 68 °F 72 °F  
Max Temperature 77 °F 83 °F 100 °F (2011)
Min Temperature 57 °F 61 °F 47 °F (1960)
Degree Days  
Heating Degree Days 0 1  
Month to date heating degree days 2  
Since 1 July heating degree days 3  
Cooling Degree Days 3 8  
Month to date cooling degree days 126  
Year to date cooling degree days 1553  
Growing Degree Days 18 (Base 50)    
Moisture  
Dew Point 51 °F    
Average Humidity 59    
Maximum Humidity 88    
Minimum Humidity 38    
Precipitation  
Precipitation 0.00 in 0.18 in 3.06 in (1993)
Month to date precipitation 2.12  
Year to date precipitation 33.09  
Sea Level Pressure  
Sea Level Pressure 30.09 in    
Wind  
Wind Speed 7 mph (NE)    
Max Wind Speed 13 mph    
Max Gust Speed 18 mph    
Visibility 10 miles    
Events      
T = Trace of Precipitation, MM = Missing Value Source: NWS Daily Summary

Daily Weather History Graph

Daily Weather History Graph

Search for Another Location

Airport:

Trip Planner

Search our weather history database for the weather conditions in past years. The results will help you decide how hot, cold, wet, or windy it might be!

Date:

Astronomy

Sep. 13, 2013 Rise Set
Actual Time 6:56 AM CDT 7:26 PM CDT
Civil Twilight 6:30 AM CDT 7:52 PM CDT
Nautical Twilight 6:00 AM CDT 8:22 PM CDT
Astronomical Twilight 5:28 AM CDT 8:54 PM CDT
Moon 3:10 PM CDT (9/13) 12:33 AM CDT (9/13)
Length of Visible Light 13h 21m
Length of Day
12h 29m
First Quarter, 61% of the Moon is Illuminated
Sep 13
First Quarter
Sep 19
Full
Sep 26
Last Quarter
Oct 4
New
Oct 11
First Quarter

Hourly Weather History & Observations

Time (CDT) Temp. Dew Point Humidity Pressure Visibility Wind Dir Wind Speed Gust Speed Precip Events Conditions
12:15 AM 68.0 °F 64.4 °F 88% 30.08 in 10.0 mi NNE 3.5 mph - N/A   Clear
12:35 AM 68.0 °F 64.4 °F 88% 30.08 in 10.0 mi NNE 5.8 mph - N/A   Clear
12:55 AM 69.8 °F 64.4 °F 83% 30.08 in 10.0 mi NNE 8.1 mph - N/A   Clear
1:15 AM 68.0 °F 62.6 °F 83% 30.08 in 10.0 mi NNE 9.2 mph - N/A   Clear
1:35 AM 68.0 °F 62.6 °F 83% 30.08 in 10.0 mi NE 9.2 mph - N/A   Clear
1:55 AM 68.0 °F 60.8 °F 78% 30.08 in 10.0 mi NE 10.4 mph 16.1 mph N/A   Clear
2:15 AM 68.0 °F 59.0 °F 73% 30.08 in 10.0 mi NE 10.4 mph - N/A   Clear
2:35 AM 68.0 °F 57.2 °F 68% 30.08 in 10.0 mi NE 10.4 mph 16.1 mph N/A   Clear
2:55 AM 68.0 °F 55.4 °F 64% 30.09 in 10.0 mi NE 9.2 mph - N/A   Clear
3:15 AM 68.0 °F 55.4 °F 64% 30.09 in 10.0 mi NE 10.4 mph - N/A   Clear
3:35 AM 66.2 °F 53.6 °F 64% 30.09 in 10.0 mi ENE 9.2 mph - N/A   Clear
3:55 AM 64.4 °F 53.6 °F 68% 30.09 in 10.0 mi ENE 9.2 mph - N/A   Clear
4:15 AM 64.4 °F 53.6 °F 68% 30.10 in 10.0 mi ENE 6.9 mph - N/A   Clear
4:35 AM 62.6 °F 51.8 °F 68% 30.10 in 10.0 mi ENE 5.8 mph - N/A   Clear
4:55 AM 62.6 °F 51.8 °F 68% 30.10 in 10.0 mi ENE 5.8 mph - N/A   Clear
5:15 AM 60.8 °F 51.8 °F 72% 30.10 in 10.0 mi NE 4.6 mph - N/A   Clear
5:35 AM 60.8 °F 51.8 °F 72% 30.10 in 10.0 mi ENE 3.5 mph - N/A   Clear
5:55 AM 60.8 °F 51.8 °F 72% 30.12 in 10.0 mi NE 3.5 mph - N/A   Clear
6:15 AM 59.0 °F 51.8 °F 77% 30.12 in 10.0 mi NE 5.8 mph - N/A   Clear
6:35 AM 59.0 °F 50.0 °F 72% 30.12 in 10.0 mi NE 4.6 mph - N/A   Clear
6:55 AM 59.0 °F 50.0 °F 72% 30.12 in 10.0 mi NE 6.9 mph - N/A   Clear
7:15 AM 59.0 °F 50.0 °F 72% 30.12 in 10.0 mi NE 5.8 mph - N/A   Clear
7:35 AM 59.0 °F 50.0 °F 72% 30.13 in 10.0 mi NE 3.5 mph - N/A   Clear
7:55 AM 59.0 °F 50.0 °F 72% 30.13 in 10.0 mi NE 5.8 mph - N/A   Clear
8:15 AM 60.8 °F 51.8 °F 72% 30.13 in 10.0 mi NE 6.9 mph - N/A   Clear
8:35 AM 62.6 °F 50.0 °F 63% 30.13 in 10.0 mi ENE 5.8 mph - N/A   Clear
8:55 AM 64.4 °F 50.0 °F 59% 30.13 in 10.0 mi NE 8.1 mph - N/A   Clear
9:15 AM 66.2 °F 50.0 °F 56% 30.14 in 10.0 mi ENE 10.4 mph 17.3 mph N/A   Clear
9:35 AM 68.0 °F 50.0 °F 52% 30.14 in 10.0 mi ENE 6.9 mph 16.1 mph N/A   Clear
9:55 AM 68.0 °F 50.0 °F 52% 30.14 in 10.0 mi ENE 10.4 mph 16.1 mph N/A   Clear
10:15 AM 69.8 °F 50.0 °F 49% 30.14 in 10.0 mi ENE 10.4 mph - N/A   Clear
10:35 AM 69.8 °F 50.0 °F 49% 30.14 in 10.0 mi ENE 8.1 mph - N/A   Clear
10:55 AM 71.6 °F 50.0 °F 46% 30.14 in 10.0 mi East 12.7 mph 18.4 mph N/A   Clear
11:15 AM 71.6 °F 48.2 °F 43% 30.14 in 10.0 mi NE 10.4 mph 16.1 mph N/A   Clear
11:35 AM 73.4 °F 48.2 °F 41% 30.13 in 10.0 mi ENE 10.4 mph 16.1 mph N/A   Clear
11:55 AM 71.6 °F 46.4 °F 41% 30.13 in 10.0 mi ENE 9.2 mph - N/A   Clear
12:15 PM 73.4 °F 46.4 °F 38% 30.12 in 10.0 mi East 10.4 mph - N/A   Clear
12:35 PM 73.4 °F 48.2 °F 41% 30.12 in 10.0 mi NNE 8.1 mph - N/A   Clear
12:55 PM 73.4 °F 46.4 °F 38% 30.11 in 10.0 mi NE 10.4 mph - N/A   Clear
1:15 PM 73.4 °F 48.2 °F 41% 30.10 in 10.0 mi NE 8.1 mph - N/A   Clear
1:35 PM 75.2 °F 50.0 °F 41% 30.09 in 10.0 mi ENE 6.9 mph - N/A   Clear
1:55 PM 75.2 °F 48.2 °F 38% 30.09 in 10.0 mi North 4.6 mph - N/A   Clear
2:15 PM 73.4 °F 50.0 °F 44% 30.08 in 10.0 mi NNE 9.2 mph - N/A   Clear
2:35 PM 75.2 °F 50.0 °F 41% 30.08 in 10.0 mi ENE 8.1 mph - N/A   Clear
2:55 PM 73.4 °F 48.2 °F 41% 30.08 in 10.0 mi NE 9.2 mph - N/A   Clear
3:15 PM 75.2 °F 50.0 °F 41% 30.06 in 10.0 mi ENE 9.2 mph - N/A   Clear
3:35 PM 77.0 °F 50.0 °F 39% 30.06 in 10.0 mi North 4.6 mph - N/A   Clear
3:55 PM 77.0 °F 50.0 °F 39% 30.05 in 10.0 mi NE 9.2 mph - N/A   Clear
4:15 PM 77.0 °F 50.0 °F 39% 30.05 in 10.0 mi NE 9.2 mph - N/A   Clear
4:35 PM 77.0 °F 50.0 °F 39% 30.05 in 10.0 mi NNE 10.4 mph 18.4 mph N/A   Clear
4:55 PM 77.0 °F 50.0 °F 39% 30.05 in 10.0 mi NNE 8.1 mph - N/A   Clear
5:15 PM 75.2 °F 50.0 °F 41% 30.04 in 10.0 mi NE 12.7 mph 16.1 mph N/A   Clear
5:35 PM 73.4 °F 50.0 °F 44% 30.05 in 10.0 mi NNE 10.4 mph 16.1 mph N/A   Clear
5:55 PM 73.4 °F 50.0 °F 44% 30.05 in 10.0 mi ENE 11.5 mph - N/A   Clear
6:15 PM 71.6 °F 48.2 °F 43% 30.05 in 10.0 mi NE 9.2 mph - N/A   Clear
6:35 PM 71.6 °F 50.0 °F 46% 30.04 in 10.0 mi NE 8.1 mph - N/A   Clear
6:55 PM 71.6 °F 50.0 °F 46% 30.04 in 10.0 mi NE 8.1 mph - N/A   Clear
7:15 PM 68.0 °F 48.2 °F 49% 30.05 in 10.0 mi NE 10.4 mph - N/A   Clear
7:35 PM 66.2 °F 48.2 °F 52% 30.05 in 10.0 mi NE 5.8 mph - N/A   Clear
7:55 PM 64.4 °F 50.0 °F 59% 30.05 in 10.0 mi NE 4.6 mph - N/A   Clear
8:15 PM 62.6 °F 50.0 °F 63% 30.05 in 10.0 mi Calm Calm - N/A   Clear
8:35 PM 62.6 °F 50.0 °F 63% 30.06 in 10.0 mi NE 3.5 mph - N/A   Clear
8:55 PM 60.8 °F 50.0 °F 68% 30.06 in 10.0 mi ENE 4.6 mph - N/A   Clear
9:15 PM 60.8 °F 50.0 °F 68% 30.07 in 10.0 mi Calm Calm - N/A   Clear
9:35 PM 60.8 °F 50.0 °F 68% 30.07 in 10.0 mi ENE 4.6 mph - N/A   Clear
9:55 PM 59.0 °F 50.0 °F 72% 30.07 in 10.0 mi ENE 5.8 mph - N/A   Clear
10:15 PM 59.0 °F 50.0 °F 72% 30.07 in 10.0 mi NE 4.6 mph - N/A   Clear
10:35 PM 59.0 °F 50.0 °F 72% 30.07 in 10.0 mi ENE 5.8 mph - N/A   Clear
10:55 PM 59.0 °F 50.0 °F 72% 30.07 in 10.0 mi ENE 5.8 mph - N/A   Clear
11:15 PM 59.0 °F 50.0 °F 72% 30.07 in 10.0 mi ENE 5.8 mph - N/A   Clear
11:35 PM 59.0 °F 50.0 °F 72% 30.06 in 10.0 mi ENE 6.9 mph - N/A   Clear
11:55 PM 57.2 °F 50.0 °F 77% 30.06 in 10.0 mi East 8.1 mph - N/A   Clear